Terminal Aerodrome Forecast
Issued by NWS Greer, SC

Home | Current Version | Previous Version | Text Only | Print | Product List | Glossary On
Versions: 1 2 3 4 5 6 7 8 9 10 11 12 13 14 15 16 17 18 19 20 21 22 23 24 25 26 27 28 29 30 31 32 33 34 35 36 37 38 39 40
000
FTUS42 KGSP 121737
TAFAVL
TAF
KAVL 121737Z 1218/1318 17008KT P6SM SKC
     FM130300 13006KT P6SM OVC040 PROB30 1303/1306 4SM -FZRA OVC025
     FM130600 12005KT 5SM -FZRA BR OVC021
     FM131000 12004KT 3SM RA OVC005=

USA.gov is the U.S. government's official web portal to all federal, state and local government web resources and services.